Lacon, IL

10:05 AM CST on December 09, 2019 (GMT -0600)
Lacon

Weather History for KC75 - October, 2019

Change the Weather History Date:

Tuesday, October 22, 2019

  Actual Average (WUND) Record (WUND)
Temperature  
Mean Temperature 48 °F -  
Max Temperature 54 °F - - (-1)
Min Temperature 43 °F - - (-1)
Degree Days  
Heating Degree Days 16    
Moisture  
Dew Point 37 °F    
Average Humidity 61    
Maximum Humidity 84    
Minimum Humidity 46    
Precipitation  
Precipitation 0.00 in - - ()
Sea Level Pressure  
Sea Level Pressure 29.71 in    
Wind  
Wind Speed 14 mph (WSW)    
Max Wind Speed 21 mph    
Max Gust Speed 32 mph    
Visibility 10 miles    
Events Rain    
Averages and records for this station are not official NWS values.
T = Trace of Precipitation, MM = Missing Value Source: NWS Daily Summary

Daily Weather History Graph

Daily Weather History Graph

Search for Another Location

Airport or City:

Astronomy

Oct. 22, 2019 Rise Set
Actual Time 7:16 AM CDT 6:06 PM CDT
Civil Twilight 6:48 AM CDT 6:34 PM CDT
Nautical Twilight 6:16 AM CDT 7:06 PM CDT
Astronomical Twilight 5:44 AM CDT 7:38 PM CDT
Moon 12:22 AM CDT (10/22) 3:19 PM CDT (10/22)
Length of Visible Light 11h 46m
Length of Day
10h 50m
Last Quarter, 37% of the Moon is Illuminated
Oct 22
Last Quarter
Oct 27
New
Nov 4
First Quarter
Nov 12
Full
Nov 19
Last Quarter

Hourly Weather History & Observations

Time (CDT) Temp. Windchill Dew Point Humidity Pressure Visibility Wind Dir Wind Speed Gust Speed Precip Events Conditions
12:15 AM 51.3 °F - 40.3 °F 66% 29.55 in 10.0 mi SW 12.7 mph 21.9 mph N/A   Clear
12:35 AM 51.1 °F - 40.3 °F 67% 29.55 in 10.0 mi SW 15.0 mph 21.9 mph N/A   Scattered Clouds
12:55 AM 50.9 °F - 40.1 °F 67% 29.55 in 10.0 mi SW 13.8 mph 23.0 mph N/A   Scattered Clouds
1:15 AM 50.9 °F - 40.3 °F 67% 29.55 in 10.0 mi SW 15.0 mph 23.0 mph N/A   Mostly Cloudy
1:35 AM 51.8 °F - 39.9 °F 64% 29.56 in 10.0 mi WSW 17.3 mph 31.1 mph N/A   Overcast
1:55 AM 51.4 °F - 39.4 °F 63% 29.56 in 10.0 mi WSW 16.1 mph 25.3 mph N/A   Mostly Cloudy
2:10 AM 51.3 °F - 39.6 °F 64% 29.56 in 10.0 mi WSW 15.0 mph 27.6 mph N/A   Overcast
2:35 AM 51.6 °F - 39.9 °F 64% 29.56 in 10.0 mi SW 15.0 mph 26.5 mph N/A   Overcast
2:55 AM 51.4 °F - 39.9 °F 65% 29.56 in 10.0 mi SW 11.5 mph 23.0 mph N/A   Overcast
3:15 AM 51.4 °F - 39.7 °F 64% 29.56 in 10.0 mi WSW 20.7 mph 27.6 mph N/A   Overcast
3:35 AM 51.3 °F - 39.7 °F 65% 29.56 in 10.0 mi SW 17.3 mph 27.6 mph N/A   Overcast
3:55 AM 50.9 °F - 40.1 °F 67% 29.56 in 10.0 mi WSW 19.6 mph 28.8 mph N/A   Overcast
4:15 AM 50.2 °F - 40.3 °F 69% 29.57 in 10.0 mi WSW 17.3 mph 28.8 mph N/A   Overcast
4:35 AM 50.0 °F - 40.3 °F 69% 29.57 in 10.0 mi WSW 15.0 mph 27.6 mph N/A   Overcast
4:55 AM 49.5 °F - 40.8 °F 72% 29.58 in 10.0 mi WSW 17.3 mph 26.5 mph N/A Rain Rain
5:15 AM 47.8 °F - 42.3 °F 81% 29.58 in 10.0 mi WSW 15.0 mph 21.9 mph N/A Rain Rain
5:35 AM 47.5 °F - 42.4 °F 83% 29.59 in 10.0 mi WSW 11.5 mph 21.9 mph N/A Rain Rain
5:55 AM 47.3 °F - 42.8 °F 84% 29.59 in 10.0 mi SW 12.7 mph 23.0 mph N/A   Overcast
6:15 AM 47.5 °F - 42.3 °F 82% 29.59 in 10.0 mi WSW 12.7 mph 17.3 mph N/A   Overcast
6:35 AM 48.2 °F - 41.4 °F 77% 29.59 in 10.0 mi WSW 16.1 mph 23.0 mph N/A   Overcast
7:15 AM 48.2 °F - 40.1 °F 74% 29.61 in 10.0 mi WSW 11.5 mph 25.3 mph N/A   Overcast
7:35 AM 48.2 °F - 40.1 °F 74% 29.62 in 10.0 mi WSW 15.0 mph 24.2 mph N/A   Overcast
7:55 AM 47.8 °F - 40.1 °F 75% 29.62 in 10.0 mi West 18.4 mph 24.2 mph N/A   Overcast
8:15 AM 48.2 °F - 39.7 °F 73% 29.63 in 10.0 mi WSW 16.1 mph 27.6 mph N/A   Overcast
8:55 AM 48.0 °F - 40.5 °F 75% 29.65 in 10.0 mi WSW 15.0 mph 28.8 mph N/A   Overcast
9:15 AM 48.2 °F - 40.1 °F 74% 29.66 in 10.0 mi West 15.0 mph 32.2 mph N/A   Overcast
9:35 AM 48.7 °F - 39.6 °F 71% 29.66 in 10.0 mi West 15.0 mph 27.6 mph N/A   Overcast
9:55 AM 48.6 °F - 37.4 °F 65% 29.67 in 10.0 mi West 15.0 mph 32.2 mph N/A   Overcast
10:15 AM 48.6 °F - 36.7 °F 64% 29.68 in 10.0 mi WSW 18.4 mph 25.3 mph N/A   Overcast
10:35 AM 48.6 °F - 36.5 °F 63% 29.69 in 10.0 mi WSW 15.0 mph 27.6 mph N/A   Overcast
10:55 AM 48.6 °F - 36.5 °F 63% 29.70 in 10.0 mi West 12.7 mph 24.2 mph N/A   Overcast
11:15 AM 48.6 °F - 36.3 °F 63% 29.71 in 10.0 mi West 16.1 mph 27.6 mph N/A   Overcast
11:35 AM 48.4 °F - 35.1 °F 60% 29.72 in 10.0 mi West 16.1 mph 27.6 mph N/A   Overcast
11:55 AM 49.1 °F - 36.1 °F 61% 29.72 in 10.0 mi West 16.1 mph 28.8 mph N/A   Overcast
12:15 PM 49.3 °F - 35.6 °F 59% 29.73 in 10.0 mi West 15.0 mph 32.2 mph N/A   Overcast
12:35 PM 51.4 °F - 36.5 °F 57% 29.72 in 10.0 mi WSW 18.4 mph 27.6 mph N/A   Overcast
12:55 PM 50.9 °F - 36.3 °F 57% 29.72 in 10.0 mi West 16.1 mph 23.0 mph N/A   Mostly Cloudy
1:15 PM 51.6 °F - 36.1 °F 56% 29.72 in 10.0 mi West 15.0 mph 23.0 mph N/A   Mostly Cloudy
1:35 PM 52.9 °F - 36.9 °F 55% 29.71 in 10.0 mi West 13.8 mph 29.9 mph N/A   Mostly Cloudy
1:55 PM 54.1 °F - 36.5 °F 51% 29.72 in 10.0 mi WSW 20.7 mph 31.1 mph N/A   Mostly Cloudy
2:15 PM 53.4 °F - 37.0 °F 54% 29.72 in 10.0 mi West 15.0 mph 23.0 mph N/A   Overcast
2:35 PM 53.1 °F - 36.9 °F 54% 29.73 in 10.0 mi WSW 10.4 mph 25.3 mph N/A   Overcast
2:55 PM 53.6 °F - 36.7 °F 53% 29.73 in 10.0 mi West 10.4 mph 27.6 mph N/A   Overcast
3:15 PM 53.8 °F - 37.2 °F 54% 29.74 in 10.0 mi West 17.3 mph 25.3 mph N/A   Overcast
3:35 PM 53.4 °F - 37.0 °F 54% 29.75 in 10.0 mi West 16.1 mph 25.3 mph N/A   Overcast
3:55 PM 53.2 °F - 37.6 °F 55% 29.75 in 10.0 mi West 10.4 mph 16.1 mph N/A   Overcast
4:15 PM 53.4 °F - 36.7 °F 53% 29.76 in 10.0 mi West 13.8 mph 20.7 mph N/A   Overcast
4:35 PM 53.6 °F - 36.9 °F 53% 29.76 in 10.0 mi West 12.7 mph 21.9 mph N/A   Overcast
4:55 PM 54.5 °F - 36.5 °F 51% 29.77 in 10.0 mi West 10.4 mph 20.7 mph N/A   Overcast
5:15 PM 54.1 °F - 35.8 °F 50% 29.78 in 10.0 mi West 15.0 mph 24.2 mph N/A   Overcast
5:35 PM 53.8 °F - 35.8 °F 51% 29.78 in 10.0 mi West 8.1 mph 24.2 mph N/A   Overcast
5:55 PM 52.9 °F - 36.0 °F 53% 29.79 in 10.0 mi West 6.9 mph - N/A   Mostly Cloudy
6:15 PM 52.0 °F - 35.6 °F 54% 29.80 in 10.0 mi West 9.2 mph - N/A   Mostly Cloudy
6:35 PM 51.8 °F - 34.0 °F 51% 29.81 in 10.0 mi WSW 10.4 mph 16.1 mph N/A   Scattered Clouds
6:55 PM 51.6 °F - 31.8 °F 47% 29.82 in 10.0 mi West 12.7 mph 20.7 mph N/A   Scattered Clouds
7:15 PM 50.7 °F - 30.6 °F 46% 29.83 in 10.0 mi West 9.2 mph 18.4 mph N/A   Scattered Clouds
7:35 PM 49.5 °F - 31.1 °F 49% 29.84 in 10.0 mi West 8.1 mph - N/A   Clear
7:55 PM 49.3 °F - 30.4 °F 48% 29.85 in 10.0 mi West 9.2 mph 16.1 mph N/A   Clear
8:15 PM 49.1 °F - 29.8 °F 47% 29.85 in 10.0 mi West 8.1 mph - N/A   Clear
8:35 PM 48.6 °F - 29.5 °F 48% 29.85 in 10.0 mi WSW 8.1 mph - N/A   Clear
8:55 PM 47.7 °F - 29.8 °F 50% 29.86 in 10.0 mi WSW 6.9 mph - N/A   Clear
9:15 PM 46.9 °F - 30.2 °F 52% 29.86 in 10.0 mi WSW 6.9 mph - N/A   Clear
9:35 PM 46.4 °F 42.9 °F 30.6 °F 54% 29.87 in 10.0 mi WSW 6.9 mph - N/A   Clear
9:55 PM 45.9 °F 42.3 °F 30.6 °F 55% 29.88 in 10.0 mi WSW 6.9 mph - N/A   Clear
10:15 PM 45.9 °F 41.7 °F 30.6 °F 55% 29.88 in 10.0 mi WSW 8.1 mph - N/A   Clear
10:35 PM 45.3 °F 41.1 °F 30.7 °F 57% 29.88 in 10.0 mi SW 8.1 mph - N/A   Clear
10:55 PM 44.1 °F 40.1 °F 31.1 °F 60% 29.88 in 10.0 mi SW 6.9 mph - N/A   Clear
11:15 PM 43.9 °F 39.9 °F 31.1 °F 61% 29.88 in 10.0 mi SW 6.9 mph - N/A   Clear
11:35 PM 43.9 °F 39.9 °F 30.9 °F 60% 29.88 in 10.0 mi SW 6.9 mph - N/A   Clear
11:55 PM 44.1 °F 40.1 °F 31.1 °F 60% 29.88 in 10.0 mi SW 6.9 mph - N/A   Clear